Trenton, NJ

6:21 AM EDT on March 30, 2017 (GMT -0400)
Trenton Mercer

Weather History for KTTN - March, 2013

Change the Weather History Date:

Saturday, March 16, 2013

  Actual Average Record
Temperature  
Mean Temperature 39 °F 41 °F  
Max Temperature 45 °F 51 °F 81 °F (1945)
Min Temperature 32 °F 32 °F 13 °F (1916)
Degree Days  
Heating Degree Days 26 24  
Month to date heating degree days 402 414  
Since 1 July heating degree days 4003 4228  
Cooling Degree Days 0 0  
Month to date cooling degree days 0 0  
Year to date cooling degree days 0 0  
Moisture  
Dew Point 29 °F    
Average Humidity 72    
Maximum Humidity 92    
Minimum Humidity 52    
Precipitation  
Precipitation 0.20 in 0.15 in 1.54 in (2007)
Month to date precipitation 1.27 2.04  
Year to date precipitation 5.89 7.51  
Sea Level Pressure  
Sea Level Pressure 29.82 in    
Wind  
Wind Speed 5 mph (ENE)    
Max Wind Speed 12 mph    
Max Gust Speed 14 mph    
Visibility 4 miles    
Events Fog , Snow    
T = Trace of Precipitation, MM = Missing Value Source: NWS Daily Summary

Daily Weather History Graph

Daily Weather History Graph

Search for Another Location

Airport or City:

Trip Planner

Search our weather history database for the weather conditions in past years. The results will help you decide how hot, cold, wet, or windy it might be!

Date:

Astronomy

Mar. 16, 2013 Rise Set
Actual Time 7:08 AM EDT 7:07 PM EDT
Civil Twilight 6:41 AM EDT 7:34 PM EDT
Nautical Twilight 6:10 AM EDT 8:06 PM EDT
Astronomical Twilight 5:38 AM EDT 8:38 PM EDT
Moon 9:36 AM EDT (3/16) No Moon Set
Length of Visible Light 12h 52m
Length of Day
11h 58m
Waxing Crescent, 23% of the Moon is Illuminated
Mar 16
Waxing Crescent
Mar 19
First Quarter
Mar 27
Full
Apr 3
Last Quarter
Apr 10
New

Hourly Weather History & Observations

Time (EDT) Temp. Windchill Dew Point Humidity Pressure Visibility Wind Dir Wind Speed Gust Speed Precip Events Conditions
12:53 AM 45.0 °F - 28.9 °F 53% 29.77 in 10.0 mi Calm Calm - N/A   Mostly Cloudy
1:53 AM 44.1 °F 39.5 °F 28.9 °F 55% 29.78 in 10.0 mi North 8.1 mph - N/A   Overcast
2:53 AM 42.1 °F 38.4 °F 28.0 °F 58% 29.79 in 10.0 mi North 5.8 mph - N/A   Overcast
3:53 AM 39.9 °F 35.1 °F 28.0 °F 63% 29.80 in 10.0 mi NNE 6.9 mph - N/A   Overcast
4:53 AM 39.0 °F 36.8 °F 25.0 °F 57% 29.80 in 10.0 mi North 3.5 mph - N/A   Overcast
5:53 AM 37.9 °F 35.5 °F 25.0 °F 60% 29.81 in 10.0 mi NE 3.5 mph - N/A   Partly Cloudy
6:53 AM 37.0 °F 33.3 °F 23.0 °F 57% 29.81 in 10.0 mi NNE 4.6 mph - N/A   Overcast
7:53 AM 37.0 °F 33.3 °F 23.0 °F 57% 29.84 in 10.0 mi NE 4.6 mph - N/A   Overcast
8:53 AM 37.0 °F 30.4 °F 21.9 °F 54% 29.82 in 10.0 mi East 9.2 mph - N/A   Overcast
9:53 AM 37.0 °F 31.0 °F 23.0 °F 57% 29.82 in 10.0 mi East 8.1 mph - N/A   Overcast
10:53 AM 37.0 °F 32.4 °F 24.1 °F 59% 29.83 in 8.0 mi ESE 5.8 mph - 0.00 in Snow Light Snow
11:41 AM 35.6 °F 31.7 °F 26.6 °F 70% 29.85 in 1.8 mi East 4.6 mph - 0.00 in Snow Light Snow
11:48 AM 33.8 °F - 26.6 °F 75% 29.85 in 1.0 mi Calm Calm - 0.00 in Snow Light Snow
11:53 AM 34.0 °F 28.8 °F 28.0 °F 79% 29.83 in 1.0 mi East 5.8 mph - 0.00 in Snow Light Snow
12:00 PM 33.8 °F 30.8 °F 28.4 °F 81% 29.85 in 0.8 mi ESE 3.5 mph - 0.00 in Snow Light Snow
12:10 PM 33.8 °F 30.8 °F 28.4 °F 81% 29.84 in 0.8 mi ESE 3.5 mph - 0.01 in Snow Light Snow
12:31 PM 33.8 °F 28.6 °F 30.2 °F 87% 29.83 in 1.0 mi ESE 5.8 mph - 0.01 in Snow Light Snow
12:41 PM 32.0 °F 27.5 °F 30.2 °F 93% 29.82 in 0.8 mi SE 4.6 mph - 0.02 in Snow Light Snow
12:47 PM 33.8 °F 30.8 °F 30.2 °F 87% 29.83 in 1.0 mi ESE 3.5 mph - 0.02 in Snow Light Snow
12:48 PM 33.1 °F - 30.0 °F 89% 29.81 in 1.0 mi Calm Calm - 0.02 in Snow Light Snow
12:53 PM 33.8 °F 30.8 °F 30.2 °F 87% 29.82 in 1.2 mi ESE 3.5 mph - 0.00 in Snow Light Snow
1:01 PM 33.8 °F 28.6 °F 30.2 °F 87% 29.82 in 2.0 mi East 5.8 mph - 0.00 in Snow Light Snow
1:06 PM 33.8 °F 29.6 °F 30.2 °F 87% 29.82 in 3.0 mi East 4.6 mph - 0.00 in Snow Light Snow
1:13 PM 33.8 °F 30.8 °F 30.2 °F 87% 29.82 in 4.0 mi East 3.5 mph - 0.01 in Snow Light Snow
1:25 PM 33.8 °F 28.6 °F 30.2 °F 87% 29.82 in 1.8 mi East 5.8 mph - 0.01 in Snow Light Snow
1:38 PM 33.8 °F 27.7 °F 30.2 °F 87% 29.80 in 3.0 mi East 6.9 mph - 0.01 in Snow Light Snow
1:53 PM 33.1 °F 26.1 °F 30.0 °F 89% 29.79 in 5.0 mi ENE 8.1 mph - 0.02 in   Overcast
2:20 PM 33.8 °F 28.6 °F 30.2 °F 87% 29.80 in 1.8 mi ENE 5.8 mph - 0.00 in Snow Light Snow
2:34 PM 33.8 °F 27.0 °F 30.2 °F 87% 29.80 in 1.2 mi NE 8.1 mph - 0.00 in Snow Light Snow
2:53 PM 32.0 °F 26.4 °F 30.0 °F 92% 29.78 in 0.8 mi ENE 5.8 mph - 0.00 in Snow Light Snow
3:20 PM 32.0 °F 25.6 °F 30.2 °F 93% 29.77 in 0.5 mi East 6.9 mph - 0.00 in Fog , Snow Snow
3:53 PM 32.0 °F 24.2 °F 30.0 °F 92% 29.76 in 0.5 mi East 9.2 mph - 0.00 in Fog , Snow Snow
4:04 PM 32.0 °F 27.5 °F 30.2 °F 93% 29.78 in 0.5 mi East 4.6 mph - 0.00 in Fog , Snow Snow
4:36 PM 32.0 °F 27.5 °F 30.2 °F 93% 29.78 in 1.2 mi ENE 4.6 mph - 0.00 in Snow Light Snow
4:50 PM 32.0 °F 28.7 °F 30.2 °F 93% 29.78 in 2.5 mi ENE 3.5 mph - 0.01 in Snow Light Snow
4:51 PM 32.0 °F 28.7 °F 30.0 °F 92% 29.77 in 2.5 mi East 3.5 mph - 0.01 in Snow Light Snow
4:59 PM 32.0 °F 27.5 °F 30.2 °F 93% 29.78 in 3.0 mi ENE 4.6 mph - 0.00 in Snow Light Snow
5:05 PM 32.0 °F 27.5 °F 30.2 °F 93% 29.78 in 2.5 mi NE 4.6 mph - 0.01 in Snow Light Snow
5:16 PM 32.0 °F 27.5 °F 30.2 °F 93% 29.78 in 1.5 mi ENE 4.6 mph - 0.01 in Snow Light Snow
5:26 PM 32.0 °F 27.5 °F 30.2 °F 93% 29.78 in 3.0 mi ENE 4.6 mph - 0.02 in Snow Light Snow
5:53 PM 32.0 °F 27.5 °F 30.0 °F 92% 29.76 in 4.0 mi ENE 4.6 mph - 0.02 in   Overcast
6:53 PM 33.1 °F 26.9 °F 30.0 °F 89% 29.78 in 7.0 mi East 6.9 mph - 0.02 in   Overcast
7:03 PM 33.8 °F 28.6 °F 30.2 °F 87% 29.79 in 7.0 mi East 5.8 mph - 0.01 in   Overcast
7:30 PM 33.8 °F 29.6 °F 30.2 °F 87% 29.81 in 8.0 mi NE 4.6 mph - 0.02 in   Overcast
7:53 PM 33.1 °F 30.0 °F 30.0 °F 89% 29.80 in 7.0 mi NE 3.5 mph - 0.02 in   Overcast
8:04 PM 33.8 °F 28.6 °F 30.2 °F 87% 29.83 in 7.0 mi NNE 5.8 mph - 0.01 in   Overcast
8:35 PM 33.8 °F 29.6 °F 30.2 °F 87% 29.85 in 6.0 mi NNE 4.6 mph - 0.02 in   Overcast
8:53 PM 33.1 °F 28.7 °F 30.0 °F 89% 29.85 in 6.0 mi NNE 4.6 mph - 0.02 in   Overcast
9:44 PM 33.8 °F - 30.2 °F 87% 29.87 in 5.0 mi Calm Calm - 0.02 in   Overcast
9:53 PM 33.1 °F 28.7 °F 30.9 °F 92% 29.87 in 6.0 mi North 4.6 mph - 0.02 in   Overcast
10:06 PM 33.8 °F 30.8 °F 30.2 °F 87% 29.88 in 5.0 mi North 3.5 mph - N/A   Overcast
10:53 PM 33.1 °F - 30.9 °F 92% 29.89 in 5.0 mi Calm Calm - 0.02 in   Overcast
11:13 PM 33.8 °F - 30.2 °F 87% 29.91 in 5.0 mi Calm Calm - N/A   Overcast
11:53 PM 33.1 °F - 30.9 °F 92% 29.91 in 6.0 mi Calm Calm - 0.01 in   Overcast